Zurück zum Katalog

FENGYUN 1C DEB

AktivSSO
NORAD 30555·DEBRIS·🇨🇳 China

Gestartet May 10, 1999 von Taiyuan Satellite Launch Center

Loading…

Nächste Überflüge (nächste 24 Stunden)

TLE

AktuellSource: Space-Track

Epoche: Sep 14, 2026, 09:40 UTC

1 30555U 99025AKV 26257.40282675  .00001553  00000-0  71503-3 0  9992
2 30555  98.7354 313.3801 0042775 195.7964 228.3396 14.22079597  8536

Verfolge FENGYUN 1C DEB in Echtzeit mit AllMySat

Download on the App Store